User: anonymous   Login
Location: Drayton Valley
(53.2170°N, 114.9830°W)
Time: 23:49:28
(UTC-07:00)
Language:

MOZ.5/SAFIR/RUBIN 5/SL-8 - Orbit

View from above orbital plane
View from above orbital plane
View from above satellite
View from above satellite

Ground track
Ground track

The orbit data is extracted from the following two-line orbital elements,

1 28898U 05043G   16337.51759870  .00000070  00000-0  23668-4 0  9995
2 28898  97.8989 130.1599 0021175  86.6757 273.6866 14.60149308591133
Epoch (UTC): 02 December 2016 12:25:20
Eccentricity: 0.0021175
inclination: 97.8989°
perigee height: 678 km
apogee height: 707 km
right ascension of ascending node: 130.1599°
argument of perigee: 86.6757°
revolutions per day: 14.60149308
mean anomaly at epoch: 273.6866°
orbit number at epoch: 59113

The dashed part of the orbit path shows where the satellite is in the earth's shadow,  

DLR